星链-35100(STARLINK-35100)

导读

STARLINK-35100是美国太空探索技术公司SpaceX星链星座的组网卫星,于2025年9月6日发射升空。星链项目旨在构建覆盖全球的低轨卫星互联网星座,为全球偏远地区、海洋等网络覆盖薄弱区域提供高速低延迟的宽带网络服务,该卫星入轨后将进一步扩充星链星座规模,提升星座全球网络服务覆盖能力与容量。

Basic Information
目录编号:
65542
目录名称:
STARLINK-35100
国际标识:
2025-200Y
轨道中心:
EARTH
卫星名称:
星链-35100
卫星全名:
星链-35100(STARLINK-35100)
卫星状态:
在轨 (已飞行280 天)
发射日期:
2025-09-06 UTC
国别 :
美国 (US)
星等 :
--
Orbit Information
数据来源 国际轨道数据 AOE轨道数据
星历时间 2026-06-13T10:28:08+0800
13小时前
查看轨道信息
2026-06-11T01:00:00+0800
2天前
查看轨道信息
半长轴 6927.839km 6927.669km
偏心率 0.0001542 0.0001286
轨道倾角 97.367° 97.375°
近地点辐角 127.983° 104.834°
升交点赤经 232.931° 230.646°
平近点角 232.154° 244.385°
近地点 548.633km 548.641km
远地点 550.771km 550.423km
周期 95.644分钟 95.640分钟
每日圈数 15.05588 15.056434
Detailed Information
固有亮度:
5
最大亮度:
2.5
卫星平台:
Starlink V1.0
覆盖范围:
全球
运营商:
太空探索技术公司
运营商所在国:
美国
制造商(研发单位):
太空探索技术公司
制造商所在国:
美国
使用方式:
暂无
Satellite Introduction
Starlink 计划是 SpaceX 推出的全球卫星互联网项目,通过发射低轨道卫星,为全球尤其是偏远地区提供高速、低延迟的互联网服务。自 2019 年起,Starlink 已部署数千颗卫星,旨在缩小全球数字鸿沟,推动互联网普及。该项目还为军事、航空等行业提供通信支持,带来广泛经济效益。
2D Orbit Map
3D Orbit Map
Orbit Altitude Analysis Chart
Orbit Inclination Analysis Chart
Orbit Comprehensive Analysis Chart
View Comprehensive Chart